Location: Eastlake (historical)
(39.0077°N, 122.6678°W)
Time: 12:54:50
(UTC+00:00)

H-2A R/B - Pass Details

Date: 25 November 2020
Orbit: 529 x 651 km, 98.3° (Epoch: 25 January)

Event Time Altitude Azimuth Distance (km) Brightness Sun altitude
Rises 14:04:41 0° 14° (NNE) 2,708 5.8 -11.7°
Reaches altitude 10° 14:06:49 10° 17° (NNE) 1,801 4.9 -11.3°
Maximum altitude 14:10:41 75° 102° (ESE) 555 2.5 -10.6°
Drops below altitude 10° 14:14:29 10° 188° (S) 1,769 5.0 -9.9°
Sets 14:16:34 0° 190° (S) 2,655 5.9 -9.5°
